When you browse on this site, cookies collect data to enhance your experience and personalize the content and advertising you see.
Visit our Privacy Policy to learn more. By continuing to use the site, you agree to this use of cookies and data.
  • In Switzerland
  • List of Countries
  • For 7 days
  • Water Temperature
  • Satellite Maps
  • Weather Map
  • Weather Widgets
  • user-avatar
    Login

    Hourly Weather Kryash-Shuran

    Today, 20 November, Tuesday

    Time Temperature Precipitation Wind Pressure Humidity
    00:00 0°C° 0.1 mm 1 mps 758 mmHg 96%
    01:00 0°C° 0.1 mm 1 mps 758 mmHg 96%
    02:00 0°C° 0.1 mm 1 mps 758 mmHg 96%
    03:00 0°C° 0.1 mm 1 mps 758 mmHg 96%
    04:00 -2°C° 0 mm 2 mps 758 mmHg 97%
    05:00 -2°C° 0.1 mm 2 mps 758 mmHg 96%
    06:00 -2°C° 0.1 mm 2 mps 758 mmHg 96%
    07:00 -2°C° 0.1 mm 2 mps 758 mmHg 96%
    08:00 -2°C° 0.1 mm 2 mps 757 mmHg 95%
    09:00 -2°C° 0.1 mm 2 mps 757 mmHg 94%
    10:00 -2°C° 0 mm 2 mps 757 mmHg 93%
    11:00 -2°C° 0.1 mm 2 mps 757 mmHg 92%
    12:00 -2°C° 0.1 mm 2 mps 757 mmHg 91%
    13:00 -2°C° 0.1 mm 2 mps 757 mmHg 90%
    14:00 -2°C° 0 mm 2 mps 756 mmHg 90%
    15:00 -2°C° 0 mm 2 mps 756 mmHg 91%
    16:00 -3°C° 0 mm 2 mps 756 mmHg 91%
    17:00 -3°C° 0 mm 2 mps 756 mmHg 91%
    18:00 -3°C° 0 mm 2 mps 755 mmHg 90%
    19:00 -3°C° 0 mm 2 mps 755 mmHg 90%
    20:00 -3°C° 0 mm 2 mps 755 mmHg 90%
    21:00 -4°C° 0 mm 2 mps 754 mmHg 90%
    22:00 -5°C° 0 mm 3 mps 754 mmHg 90%
    23:00 -5°C° 0 mm 3 mps 753 mmHg 89%

    Tomorrow, 21 November, Wednesday

    Time Temperature Precipitation Wind Pressure Humidity
    00:00 -5°C° 0 mm 3 mps 753 mmHg 89%
    01:00 -5°C° 0 mm 4 mps 752 mmHg 88%
    02:00 -5°C° 0 mm 4 mps 752 mmHg 89%
    03:00 -7°C° 0 mm 4 mps 751 mmHg 89%
    04:00 -7°C° 0 mm 5 mps 750 mmHg 89%
    05:00 -6°C° 0.2 mm 5 mps 750 mmHg 89%
    06:00 -6°C° 0.2 mm 6 mps 749 mmHg 89%
    07:00 -6°C° 0.2 mm 6 mps 748 mmHg 88%
    08:00 -6°C° 0.4 mm 6 mps 748 mmHg 88%
    09:00 -6°C° 0.4 mm 6 mps 747 mmHg 88%
    10:00 -6°C° 0.4 mm 6 mps 746 mmHg 88%
    11:00 -6°C° 0.2 mm 6 mps 746 mmHg 87%
    12:00 -5°C° 0.2 mm 6 mps 745 mmHg 86%
    13:00 -6°C° 0.2 mm 7 mps 744 mmHg 85%
    14:00 -5°C° 0.1 mm 6 mps 744 mmHg 86%
    15:00 -5°C° 0.1 mm 6 mps 744 mmHg 86%
    16:00 -4°C° 0.1 mm 6 mps 744 mmHg 86%
    17:00 -5°C° 0.1 mm 6 mps 744 mmHg 86%
    18:00 -6°C° 0.1 mm 6 mps 744 mmHg 85%
    19:00 -6°C° 0.1 mm 6 mps 744 mmHg 84%
    20:00 -8°C° 0.1 mm 6 mps 744 mmHg 83%
    21:00 -8°C° 0.1 mm 6 mps 744 mmHg 82%
    22:00 -8°C° 0.1 mm 6 mps 744 mmHg 81%
    23:00 -9°C° 0 mm 6 mps 745 mmHg 82%

    Day after tomorrow, 22 November, Thursday

    Time Temperature Precipitation Wind Pressure Humidity
    00:00 -10°C° 0 mm 6 mps 745 mmHg 82%
    01:00 -10°C° 0 mm 6 mps 745 mmHg 82%
    02:00 -11°C° 0 mm 6 mps 745 mmHg 84%
    03:00 -11°C° 0 mm 5 mps 745 mmHg 86%
    04:00 -11°C° 0 mm 5 mps 745 mmHg 89%
    05:00 -11°C° 0 mm 5 mps 745 mmHg 89%
    06:00 -11°C° 0 mm 5 mps 745 mmHg 89%
    07:00 -10°C° 0 mm 5 mps 745 mmHg 89%
    08:00 -11°C° 0 mm 5 mps 745 mmHg 89%
    09:00 -11°C° 0 mm 5 mps 745 mmHg 89%
    10:00 -10°C° 0 mm 4 mps 745 mmHg 88%
    11:00 -10°C° 0 mm 4 mps 745 mmHg 86%
    12:00 -10°C° 0 mm 4 mps 745 mmHg 84%
    13:00 -8°C° 0 mm 3 mps 745 mmHg 82%
    14:00 -9°C° 0 mm 4 mps 744 mmHg 84%
    15:00 -9°C° 0 mm 4 mps 744 mmHg 86%
    16:00 -9°C° 0 mm 4 mps 743 mmHg 88%
    17:00 -10°C° 0.5 mm 5 mps 742 mmHg 89%
    18:00 -9°C° 0.5 mm 6 mps 741 mmHg 91%
    19:00 -8°C° 0.5 mm 7 mps 740 mmHg 92%
    20:00 -8°C° 0.4 mm 7 mps 739 mmHg 91%
    21:00 -8°C° 0.4 mm 7 mps 739 mmHg 90%
    22:00 -7°C° 0.4 mm 7 mps 738 mmHg 89%
    23:00 -8°C° 0.1 mm 7 mps 737 mmHg 90%

    23 November, Friday

    Time Temperature Precipitation Wind Pressure Humidity
    00:00 -8°C° 0.1 mm 6 mps 737 mmHg 90%
    01:00 -8°C° 0.1 mm 6 mps 737 mmHg 91%
    02:00 -7°C° 0.3 mm 5 mps 736 mmHg 92%
    03:00 -7°C° 0.3 mm 4 mps 736 mmHg 94%
    04:00 -6°C° 0.3 mm 3 mps 736 mmHg 95%
    05:00 -7°C° 0.4 mm 3 mps 736 mmHg 95%
    06:00 -7°C° 0.4 mm 3 mps 736 mmHg 95%
    07:00 -7°C° 0.4 mm 3 mps 736 mmHg 95%
    08:00 -8°C° 0.3 mm 4 mps 737 mmHg 93%
    09:00 -10°C° 0.3 mm 5 mps 737 mmHg 91%
    10:00 -11°C° 0.3 mm 7 mps 738 mmHg 89%
    11:00 -12°C° 0.1 mm 7 mps 739 mmHg 87%
    12:00 -12°C° 0.1 mm 8 mps 740 mmHg 85%
    13:00 -13°C° 0.1 mm 8 mps 741 mmHg 83%
    14:00 -13°C° 0 mm 8 mps 742 mmHg 83%
    15:00 -13°C° 0 mm 8 mps 743 mmHg 83%
    16:00 -13°C° 0 mm 8 mps 744 mmHg 82%
    17:00 -14°C° 0 mm 7 mps 745 mmHg 84%
    18:00 -14°C° 0 mm 7 mps 746 mmHg 85%
    19:00 -15°C° 0 mm 7 mps 747 mmHg 86%
    20:00 -15°C° 0 mm 6 mps 748 mmHg 87%
    21:00 -15°C° 0 mm 5 mps 749 mmHg 89%
    22:00 -15°C° 0 mm 5 mps 750 mmHg 90%
    23:00 -15°C° 0 mm 4 mps 750 mmHg 91%

    24 November, Saturday

    Time Temperature Precipitation Wind Pressure Humidity
    00:00 -16°C° 0 mm 4 mps 751 mmHg 92%
    01:00 -16°C° 0 mm 4 mps 751 mmHg 93%
    02:00 -16°C° 0 mm 4 mps 752 mmHg 94%
    03:00 -16°C° 0 mm 4 mps 752 mmHg 94%
    04:00 -16°C° 0 mm 4 mps 752 mmHg 95%
    05:00 -16°C° 0 mm 4 mps 752 mmHg 95%
    06:00 -15°C° 0 mm 5 mps 752 mmHg 95%
    07:00 -15°C° 0 mm 5 mps 752 mmHg 95%
    08:00 -14°C° 0 mm 5 mps 752 mmHg 94%
    09:00 -14°C° 0 mm 6 mps 752 mmHg 92%
    10:00 -11°C° 0 mm 6 mps 752 mmHg 91%
    11:00 -12°C° 0 mm 7 mps 752 mmHg 90%
    12:00 -11°C° 0 mm 7 mps 751 mmHg 89%
    13:00 -11°C° 0 mm 8 mps 751 mmHg 88%
    14:00 -11°C° 0 mm 8 mps 751 mmHg 88%
    15:00 -11°C° 0 mm 8 mps 751 mmHg 87%
    16:00 -11°C° 0 mm 8 mps 751 mmHg 86%
    17:00 -11°C° 0 mm 8 mps 750 mmHg 86%
    18:00 -10°C° 0 mm 8 mps 750 mmHg 86%
    19:00 -10°C° 0 mm 8 mps 750 mmHg 86%
    20:00 -10°C° 0.1 mm 8 mps 750 mmHg 86%
    21:00 -8°C° 0.1 mm 8 mps 750 mmHg 86%
    22:00 -8°C° 0.1 mm 8 mps 749 mmHg 86%
    23:00 -8°C° 0 mm 8 mps 749 mmHg 86%

    25 November, Sunday

    Time Temperature Precipitation Wind Pressure Humidity
    00:00 -8°C° 0 mm 8 mps 749 mmHg 86%
    01:00 -7°C° 0 mm 8 mps 749 mmHg 86%
    02:00 -7°C° 0.1 mm 8 mps 749 mmHg 86%
    03:00 -7°C° 0.1 mm 8 mps 748 mmHg 86%
    04:00 -7°C° 0.1 mm 8 mps 748 mmHg 85%
    05:00 -7°C° 0.1 mm 8 mps 748 mmHg 86%
    06:00 -7°C° 0.1 mm 8 mps 748 mmHg 86%
    07:00 -7°C° 0.1 mm 8 mps 748 mmHg 86%
    08:00 -7°C° 0.1 mm 8 mps 748 mmHg 86%
    09:00 -7°C° 0.1 mm 8 mps 749 mmHg 87%
    10:00 -7°C° 0.1 mm 7 mps 749 mmHg 88%
    11:00 -7°C° 0 mm 7 mps 750 mmHg 87%
    12:00 -7°C° 0 mm 7 mps 750 mmHg 86%
    13:00 -5°C° 0 mm 6 mps 750 mmHg 86%
    14:00 -6°C° 0 mm 6 mps 751 mmHg 87%
    15:00 -6°C° 0 mm 5 mps 751 mmHg 87%
    16:00 -7°C° 0 mm 4 mps 752 mmHg 88%
    17:00 -7°C° 0 mm 4 mps 752 mmHg 89%
    18:00 -7°C° 0 mm 4 mps 752 mmHg 90%
    19:00 -7°C° 0 mm 4 mps 753 mmHg 90%
    20:00 -6°C° 0 mm 3 mps 753 mmHg 91%
    21:00 -6°C° 0 mm 3 mps 753 mmHg 91%
    22:00 -6°C° 0 mm 3 mps 753 mmHg 91%
    23:00 -6°C° 0 mm 3 mps 753 mmHg 92%
    Show more